DECAYED

STARLINK-1909, 47550 (Decayed)

Orbit data source: Space-Track

STARLINK-1909, 47550 was a payload satellite owned by SpaceX/Seattle (US) in LEO that was launched on Thu, 04 Feb 2021 UTC via an FALCON 9 launch vehicle from the Air Force Eastern Test Range (AFETR). Payload-class satellites include a variety of spacecraft equipped with specific instruments for various scientific and technological missions. These include communications satellites like Starlink; space stations such as the ISS; scientific satellites like the Hubble; Earth observation satellites from companies like Planet Labs, Umbra, and HawkEye 360; GPS; miniature CubeSats for education and research; and military/defense satellites.

Not visible in the next 10 days
Identifier
47550, 2021-009C
Orbit
Decayed
Country
Flag of USUS
Related business
Manufacturer
SpaceX/Seattle
Mission
Decayed Commercial Communications
Bus & Motor
STARLINK, Unknown motor
Mass
260 kg wet, ~248 kg dry
Launch date (UTC)
2021-02-04 (5 years ago)
Launch vehicle
FALCON 9
Launch site
Air Force Eastern Test Range (AFETR)
Object type
Payload
Rocket body
Debris
Shape & HBR
Box + 1 Pan, 10.1 m
Radar Cross Section
13.562 m², Large (>1 m²)

Expand to show TLE details & history
Last TLE update: 1 year ago

TLE from 1 year ago
0 STARLINK-1909
1 47550U 21009C   25095.23136564  .13273560  12444-4  46109-3 0  9993
2 47550  53.0318  29.0872 0003185 218.9433 281.1249 16.44485941231399
Epoch: 2025-04-05T05:33Z
TLE epoch observation values (Epoch: 2025-04-05T05:33:09.991Z)
Latitude
30.98058°
Longitude
-94.68202°
Altitude
155.343 km
Speed
7.818 km/s
True Right ascension
12h 09m 33s
True Declination
30° 48' 54"
Sunlit
Object was in full shadow at epoch
Visualization orbit readout
Latitude
Unknown
Longitude
Unknown
Altitude
Unknown
Speed
Unknown
Apparent Right ascension
Unknown
Apparent Declination
Unknown
Sunlit
N/A
Visualization observer readout
Local Sidereal Time
21:26:34
Azimuth
Unknown
Elevation
Unknown
Doppler factor
Unknown
Orbital elements
Apogee altitude
156.267 km
Perigee altitude
152.106 km
Semi-major axis
6,532.324 km
Eccentricity
0.00032
Inclination
53.0318°
RAAN
29.0872°
Arg. of periapsis
218.9433°
True anomaly
281.08909°
Mean anomaly
281.1249°
Eccentric anomaly
281.10699°
Mean motion
4.11094 °/min
Orbital period
87.57 mins
BSTAR
0.00046109
Loading maneuver chart data...
Computing Atmospheric mass density...

Documentation

Showing up to 5 results
|